Vorticity
4 12 23 35 18 22 27 15 12 12 12 9 5 6 12 23 21 16 10 6 3 1 2 6 4 4 6 6 5 3 1 1 3 4 4 4 4 5 6 7 8 8 8 7 6 6 6 6 6 6 7 8 7 8 8 7 7 7 8 8 8 8 8 8 9 9 10 10 10
4 18 30 25 13 24 33 15 10 9 10 9 3 4 10 19 19 17 14 10 6 5 5 3 3 6 9 8 3 0 -0 1 3 4 5 4 5 5 6 7 8 8 7 6 6 6 6 6 6 7 7 7 8 8 8 8 8 8 8 8 8 8 8 9 9 10 10 9 8
-1 19 30 16 23 34 35 9 6 8 10 10 4 4 9 19 21 21 19 15 10 7 5 0 5 10 11 6 -1 -3 -1 3 4 5 5 5 5 6 6 7 7 7 7 7 7 7 7 7 7 8 8 8 8 9 8 8 8 8 8 8 7 8 8 9 10 9 9 8 8
-5 12 20 17 43 45 29 4 4 7 11 9 6 7 12 21 27 27 24 19 13 8 2 -1 10 13 9 -0 -4 -3 1 4 5 5 5 5 6 6 7 7 7 7 7 7 7 7 7 7 8 9 9 9 9 9 9 8 8 8 8 8 8 8 9 10 9 9 8 8 7
-4 11 20 30 55 47 23 2 3 5 6 5 8 11 15 20 31 33 29 20 12 5 2 7 17 13 2 -7 -5 -1 3 5 6 6 6 6 6 6 7 7 8 8 8 7 7 7 7 8 9 9 9 9 9 9 8 7 7 7 8 8 9 9 9 9 9 9 8 7 7
3 19 27 35 47 37 18 5 5 3 2 4 11 14 14 13 23 30 30 20 11 6 7 16 15 5 -6 -8 -2 2 5 6 6 6 6 6 7 7 7 8 8 8 8 7 7 7 8 8 8 9 9 8 8 8 8 7 7 7 7 8 9 9 9 9 8 8 7 6 6
8 24 31 37 37 27 15 9 7 5 5 9 15 14 9 4 11 23 28 18 10 8 10 12 2 -5 -8 -3 2 5 6 6 6 6 7 7 7 8 8 9 9 9 8 7 7 8 8 8 8 8 8 8 8 8 7 8 8 8 8 9 9 9 9 9 8 7 7 6 6
14 29 31 32 30 23 15 11 10 10 11 14 15 10 4 -1 11 18 19 8 10 10 7 -2 -8 -7 -3 3 5 6 6 6 6 7 8 8 8 9 9 9 9 9 8 7 8 8 9 9 9 8 8 8 8 8 8 8 8 9 10 10 9 9 9 8 7 7 6 6 6
21 30 29 33 28 21 15 13 14 15 15 15 11 6 2 4 14 13 8 6 12 8 -2 -11 -8 -3 2 6 6 6 6 6 7 8 9 9 9 10 10 10 9 9 8 8 9 9 9 9 9 9 8 8 8 8 8 9 9 10 10 10 9 8 8 7 7 6 6 6 6
26 30 30 38 27 19 14 14 15 16 15 13 6 2 4 15 16 12 8 12 10 1 -8 -8 -3 1 4 5 5 6 6 8 9 10 10 10 10 11 11 10 9 8 8 8 9 9 9 9 9 9 8 8 8 8 9 9 10 10 10 9 8 8 7 7 6 6 6 7 7
29 31 33 32 20 14 11 11 12 13 12 9 1 2 9 21 16 13 13 15 4 -4 -7 -3 0 3 4 4 5 6 8 10 11 11 11 11 12 12 11 10 9 9 9 10 10 10 9 9 8 8 8 8 8 9 9 10 10 10 9 8 8 7 7 7 7 7 7 7 8
30 32 31 20 14 10 10 9 10 11 10 6 -1 2 11 18 15 15 13 7 -2 -4 -3 0 1 2 3 4 6 8 10 12 12 12 12 12 13 12 11 9 9 10 10 10 10 10 9 9 8 8 8 8 10 10 10 10 10 9 8 7 7 6 6 6 7 7 7 8 8
32 29 23 12 10 11 12 12 11 11 10 6 1 4 11 17 17 13 6 -1 -3 -2 1 2 1 1 3 6 8 10 12 13 13 13 13 13 12 11 10 9 9 10 10 10 10 9 9 8 8 8 8 9 11 11 11 10 9 8 7 6 6 6 6 6 7 7 8 9 9
32 21 11 7 10 13 14 14 13 13 12 9 6 8 12 15 11 5 -0 -2 -0 0 1 -0 0 3 6 8 10 11 12 13 14 14 14 13 11 10 9 9 10 10 10 9 9 9 8 8 8 9 9 10 11 11 10 9 8 7 6 5 5 5 5 6 7 8 8 9 9
22 10 5 7 11 14 16 15 14 15 15 13 9 8 9 8 4 1 -0 1 -0 -2 -3 -1 3 6 8 9 11 12 13 14 15 15 14 12 10 9 9 9 9 9 9 9 8 8 8 8 8 9 10 11 10 9 8 7 6 5 5 4 4 5 5 6 7 8 8 8 9
12 6 7 10 13 15 16 15 16 17 17 12 5 4 5 5 4 5 4 2 -3 -5 -3 3 6 7 9 10 11 13 14 15 15 14 12 10 9 9 9 9 9 9 9 8 8 8 8 9 10 11 11 11 9 8 7 6 5 4 4 4 4 5 6 7 7 8 8 9 9
11 9 10 12 14 15 16 15 16 16 13 5 2 4 7 9 10 10 6 0 -6 -7 -3 4 6 8 10 11 13 14 16 16 15 12 10 9 9 9 10 9 9 9 9 8 8 8 9 10 11 12 11 10 8 7 5 4 4 4 4 4 5 6 7 7 8 8 9 9 9
13 12 11 11 13 14 15 15 14 11 6 1 2 6 11 14 14 10 4 -2 -6 -7 -3 5 7 10 12 14 15 16 16 14 12 10 9 9 9 10 10 9 9 9 8 8 8 9 10 12 12 12 10 9 7 5 4 4 3 3 4 4 5 6 7 8 8 9 9 9 9
14 12 9 8 10 12 13 13 9 5 1 -1 3 9 13 14 10 5 1 -1 -4 -3 1 7 10 12 15 17 17 16 14 11 9 8 8 9 9 9 9 9 8 8 8 8 9 10 11 12 11 10 8 7 5 4 3 3 3 4 4 5 6 7 8 9 9 10 10 9 9
13 11 8 6 7 9 11 10 4 -1 -4 0 7 11 12 8 3 1 0 1 -0 2 6 10 13 16 17 18 16 13 11 8 8 8 8 9 9 9 8 8 8 8 8 9 10 11 11 11 9 8 6 4 4 3 3 3 4 4 5 7 7 8 9 10 10 10 10 9 8
14 13 12 8 7 8 8 4 -5 -9 -6 8 15 14 9 1 -2 -1 1 2 2 5 9 14 16 17 17 15 13 10 8 7 7 8 8 8 8 8 8 8 8 8 9 10 11 11 11 9 7 5 4 3 3 3 3 3 4 6 7 8 9 9 10 10 10 10 9 8 8
17 19 18 14 11 6 1 -7 -14 -10 3 21 21 15 7 -0 -2 0 3 2 5 9 13 15 16 15 14 12 9 8 7 7 7 8 8 8 8 8 8 8 8 9 10 11 11 10 9 7 5 3 3 2 2 3 3 4 6 7 8 9 9 10 10 10 9 9 8 8 8
20 21 20 17 10 0 -8 -12 -6 6 19 25 20 13 7 1 1 2 4 5 9 13 15 14 13 12 11 9 8 7 7 7 8 8 8 8 8 8 8 8 9 10 11 11 9 8 6 4 3 2 2 2 2 3 4 6 7 8 9 9 10 10 10 9 8 8 7 7 8
15 14 12 9 2 -3 -3 4 16 24 25 19 15 9 4 3 4 5 7 9 13 14 13 12 10 9 8 7 7 7 7 8 8 8 8 8 8 8 8 9 10 10 10 9 7 5 4 3 2 2 2 2 3 4 5 7 8 9 10 10 10 10 9 8 7 7 7 8 9
6 6 6 5 4 6 13 23 28 25 19 14 10 5 1 3 5 8 10 12 13 12 10 8 7 7 7 7 7 8 8 8 8 8 8 8 8 9 9 10 10 10 9 7 5 3 2 2 2 2 2 3 4 5 7 8 9 10 10 10 10 9 8 7 7 7 8 9 10
8 11 12 13 14 17 22 26 22 17 13 10 4 1 1 5 8 11 12 13 11 10 8 6 6 6 6 7 7 8 8 8 8 7 7 8 9 10 10 10 9 8 6 5 3 2 2 2 2 2 3 4 5 7 8 9 10 10 10 10 9 8 8 7 7 8 9 10 11
16 17 18 18 19 21 21 19 14 11 8 4 2 2 5 9 11 12 12 11 9 7 6 5 5 6 7 7 8 8 8 8 7 7 7 8 9 10 10 9 7 6 4 3 2 1 1 1 2 3 4 6 7 8 9 10 10 10 10 10 9 8 7 7 8 9 10 11 11
17 18 19 19 19 19 17 13 10 7 4 3 4 6 10 12 12 11 10 9 7 5 5 5 6 7 7 8 8 8 7 7 7 8 8 9 9 9 8 7 5 4 2 1 1 1 1 2 3 4 6 7 9 10 11 11 11 11 11 10 9 8 7 8 8 9 10 11 11
16 18 19 19 18 17 14 11 7 5 4 5 7 9 11 12 11 10 9 7 6 5 5 5 6 7 7 8 8 8 7 7 8 8 9 10 9 8 6 5 3 2 1 1 1 1 2 3 4 6 8 10 11 12 12 12 12 12 11 10 8 8 8 8 9 10 11 11 10
14 15 17 18 18 16 14 11 8 6 5 6 8 10 11 12 10 9 7 6 5 5 6 7 7 8 8 8 7 7 7 8 8 9 9 9 8 6 4 3 2 1 1 1 1 2 4 5 7 9 10 12 12 13 13 12 12 11 10 9 8 8 8 9 10 10 10 10 10
10 10 13 16 17 16 14 11 7 5 5 6 9 11 11 11 8 7 6 5 5 6 7 7 8 8 8 7 7 7 8 9 9 9 8 7 6 4 3 2 2 1 1 2 3 4 6 8 10 11 12 13 12 12 12 12 11 10 9 8 8 8 9 9 9 10 10 9 9
6 7 10 14 15 13 10 5 3 4 7 10 11 11 10 8 6 6 5 6 6 7 7 8 8 7 7 7 7 7 8 9 9 8 7 5 4 3 2 1 1 2 2 4 5 7 9 11 12 12 12 12 11 11 10 10 9 8 8 7 8 8 9 9 9 9 9 9 9
7 9 13 14 11 6 1 -2 3 9 14 14 12 10 8 6 5 5 5 6 7 7 7 7 7 7 7 7 7 8 9 9 8 7 5 4 3 2 2 1 2 3 5 6 8 10 12 13 13 12 11 10 10 9 8 8 7 7 7 8 8 8 9 9 9 9 9 9 9
12 13 14 11 5 -0 -3 0 10 16 17 13 10 8 7 6 5 5 6 6 7 7 7 7 7 7 6 6 7 8 8 8 7 5 4 3 2 2 2 2 4 6 8 10 12 13 13 13 12 11 10 9 8 7 7 7 7 8 8 8 9 9 10 10 9 9 8 8 8
10 9 6 2 -0 -1 2 7 14 16 15 11 8 7 6 6 6 6 6 6 7 7 7 7 7 7 7 8 8 8 7 6 5 3 2 2 2 2 3 5 7 10 11 13 13 13 12 11 10 9 8 8 7 7 7 7 8 8 9 9 9 9 10 10 9 8 8 7 8
3 1 -0 -1 1 4 7 10 13 14 12 9 7 6 6 6 7 7 7 6 7 7 7 7 8 8 9 9 8 7 5 4 3 2 2 2 3 5 7 9 11 12 13 13 12 12 11 10 9 8 8 8 8 8 8 8 8 9 9 9 9 9 9 9 8 8 7 7 8
3 2 1 2 5 7 8 9 10 11 11 9 8 7 7 7 7 7 7 6 7 7 8 8 9 9 9 8 7 5 4 3 2 2 3 4 7 9 11 13 13 13 12 12 11 10 10 9 9 8 8 8 8 8 8 9 9 9 10 10 9 8 8 8 7 7 7 8 9
8 7 6 7 9 9 8 6 7 8 9 9 8 8 7 7 7 7 7 7 7 7 8 9 9 9 8 6 5 4 3 2 3 4 6 8 10 12 12 13 12 11 11 10 10 9 9 9 9 9 9 9 8 8 9 9 10 10 10 9 8 8 7 7 7 7 8 9 10
8 8 9 11 12 11 8 3 4 6 9 9 8 8 7 7 7 7 7 8 8 8 9 9 9 7 6 4 3 3 2 3 4 6 9 11 12 12 12 11 10 10 9 9 9 9 9 9 9 9 9 9 9 9 9 10 10 10 10 9 8 8 8 8 8 9 10 11 11
7 9 10 11 11 11 9 4 4 6 8 9 8 8 7 7 7 7 8 9 10 9 9 8 7 6 4 3 2 3 3 5 7 9 11 11 11 11 10 10 9 9 8 8 8 8 8 9 9 9 9 9 10 10 10 10 10 10 9 9 9 9 9 10 10 11 11 12 11
10 11 12 11 9 9 9 7 7 8 9 9 8 8 7 8 8 8 9 10 10 10 8 7 5 4 3 2 3 4 5 7 10 11 11 11 10 10 9 9 9 8 8 8 8 8 9 9 9 9 9 9 9 9 9 9 9 9 9 9 10 10 10 10 11 12 12 12 12
Height
2968 2971 2972 2975 2980 2983 2986 2991 2996 3001 3005 3009 3013 3016 3020 3022 3025 3029 3032 3036 3039 3042 3045 3048 3051 3054 3058 3061 3065 3067 3069 3071 3072 3074 3076 3077 3079 3080 3081 3083 3084 3086 3086 3087 3088 3089 3090 3091 3093 3094 3096 3097 3098 3099 3100 3100 3101 3102 3102 3103 3103 3104 3104 3104 3104 3105 3105 3105 3105
2967 2969 2971 2975 2980 2983 2987 2991 2996 3001 3005 3010 3014 3017 3020 3022 3025 3029 3032 3036 3040 3043 3045 3048 3051 3054 3058 3061 3064 3067 3069 3070 3071 3073 3075 3076 3078 3080 3081 3082 3083 3085 3086 3086 3087 3089 3090 3091 3093 3094 3096 3096 3097 3098 3099 3100 3101 3101 3102 3102 3102 3103 3103 3103 3104 3104 3104 3104 3105
2966 2968 2972 2976 2980 2983 2987 2992 2996 3001 3006 3010 3014 3017 3019 3022 3026 3029 3033 3036 3040 3043 3045 3047 3051 3054 3057 3061 3064 3066 3068 3069 3071 3073 3074 3076 3077 3079 3080 3081 3083 3084 3085 3086 3087 3089 3090 3092 3093 3094 3095 3096 3097 3098 3099 3099 3100 3101 3101 3101 3102 3102 3102 3103 3103 3103 3103 3104 3104
2965 2968 2972 2977 2981 2984 2987 2992 2997 3002 3006 3010 3013 3016 3019 3022 3026 3029 3033 3036 3040 3043 3045 3047 3050 3054 3057 3061 3063 3065 3067 3069 3071 3072 3074 3075 3077 3078 3080 3081 3082 3083 3084 3086 3087 3089 3090 3092 3093 3094 3095 3096 3097 3097 3098 3099 3099 3100 3100 3101 3101 3101 3101 3102 3102 3102 3103 3103 3103
2965 2968 2972 2978 2981 2985 2989 2994 2999 3002 3006 3010 3013 3016 3019 3023 3026 3029 3033 3036 3040 3043 3046 3048 3051 3054 3057 3060 3062 3065 3066 3068 3070 3072 3073 3075 3076 3078 3079 3080 3081 3082 3084 3086 3087 3089 3090 3091 3093 3094 3095 3095 3096 3097 3097 3098 3098 3099 3099 3100 3100 3101 3101 3101 3101 3102 3102 3102 3103
2965 2969 2974 2979 2982 2986 2991 2995 2999 3003 3006 3010 3013 3016 3020 3023 3026 3029 3032 3036 3040 3043 3046 3048 3051 3055 3057 3060 3062 3064 3066 3068 3070 3071 3073 3075 3076 3077 3078 3080 3081 3083 3084 3086 3088 3089 3090 3091 3092 3093 3094 3095 3095 3096 3096 3097 3097 3098 3098 3099 3099 3100 3100 3101 3101 3101 3101 3102 3102
2966 2971 2976 2981 2983 2987 2991 2996 3000 3003 3007 3011 3014 3017 3020 3023 3026 3030 3033 3036 3039 3042 3046 3049 3052 3055 3057 3060 3062 3064 3066 3068 3070 3071 3073 3074 3076 3077 3078 3080 3081 3083 3085 3086 3087 3089 3090 3091 3091 3092 3093 3094 3095 3095 3096 3096 3097 3097 3098 3098 3099 3099 3100 3100 3101 3101 3101 3102 3102
2968 2972 2978 2982 2984 2987 2992 2996 3000 3004 3008 3011 3015 3018 3021 3024 3027 3031 3034 3036 3039 3042 3046 3049 3052 3055 3058 3060 3062 3064 3066 3068 3070 3071 3073 3074 3076 3077 3078 3080 3082 3083 3085 3086 3087 3088 3089 3090 3091 3092 3092 3093 3094 3094 3095 3096 3096 3096 3097 3098 3098 3099 3099 3100 3100 3101 3101 3101 3101
2970 2975 2980 2982 2985 2989 2993 2997 3001 3005 3008 3011 3015 3018 3022 3025 3028 3031 3033 3036 3040 3044 3047 3050 3053 3056 3058 3060 3062 3064 3066 3068 3069 3071 3072 3074 3075 3077 3079 3080 3082 3083 3085 3086 3087 3088 3089 3090 3091 3091 3092 3093 3093 3094 3095 3095 3096 3096 3096 3097 3098 3098 3099 3099 3100 3100 3101 3101 3101
2971 2976 2980 2982 2986 2990 2994 2998 3002 3005 3009 3012 3016 3019 3023 3026 3028 3031 3034 3037 3041 3045 3047 3051 3053 3056 3058 3060 3062 3064 3066 3068 3069 3071 3072 3074 3075 3077 3079 3080 3082 3083 3084 3086 3086 3087 3088 3089 3090 3091 3091 3092 3093 3093 3094 3095 3095 3096 3096 3097 3097 3098 3098 3099 3100 3100 3100 3101 3101
2974 2977 2980 2982 2986 2991 2995 2998 3002 3006 3010 3013 3017 3021 3024 3026 3028 3031 3035 3039 3042 3045 3048 3051 3053 3055 3058 3060 3062 3064 3066 3068 3069 3071 3072 3074 3075 3077 3079 3080 3082 3083 3084 3085 3086 3087 3088 3089 3090 3090 3091 3091 3092 3093 3093 3094 3095 3095 3096 3096 3097 3097 3098 3099 3099 3100 3100 3100 3100
2976 2978 2980 2983 2987 2991 2995 2999 3002 3006 3010 3014 3018 3021 3024 3026 3029 3032 3036 3040 3042 3045 3048 3050 3053 3055 3058 3060 3062 3064 3066 3067 3069 3071 3072 3074 3076 3077 3079 3081 3082 3083 3084 3085 3086 3086 3087 3088 3089 3090 3091 3091 3092 3092 3093 3094 3094 3095 3096 3096 3097 3097 3098 3098 3099 3099 3099 3100 3100
2976 2978 2981 2985 2988 2992 2996 2999 3003 3006 3010 3015 3019 3022 3025 3027 3030 3034 3037 3040 3043 3046 3048 3050 3052 3055 3058 3060 3061 3063 3065 3067 3069 3070 3072 3074 3076 3077 3079 3080 3081 3082 3083 3084 3085 3086 3087 3088 3089 3089 3090 3091 3091 3092 3093 3093 3094 3095 3095 3096 3096 3097 3097 3098 3098 3099 3099 3099 3099
2976 2978 2982 2986 2989 2993 2997 3000 3004 3008 3012 3016 3020 3022 3025 3028 3031 3034 3037 3041 3043 3045 3047 3050 3053 3055 3057 3059 3061 3063 3065 3066 3068 3070 3072 3074 3076 3077 3079 3080 3081 3082 3083 3084 3085 3086 3087 3087 3088 3089 3090 3090 3091 3092 3092 3093 3094 3095 3095 3096 3096 3097 3097 3098 3098 3098 3098 3098 3098
2976 2980 2983 2987 2991 2994 2998 3002 3006 3009 3013 3017 3020 3023 3026 3029 3032 3035 3038 3041 3043 3045 3048 3051 3053 3055 3056 3058 3060 3062 3064 3066 3068 3070 3072 3074 3076 3077 3078 3079 3080 3081 3082 3084 3085 3086 3086 3087 3088 3088 3089 3090 3091 3091 3092 3093 3094 3094 3095 3095 3096 3096 3097 3097 3098 3098 3098 3098 3098
2978 2981 2985 2988 2992 2996 3000 3004 3007 3011 3014 3017 3021 3024 3027 3030 3033 3036 3039 3041 3043 3046 3049 3051 3052 3054 3056 3058 3060 3062 3064 3066 3068 3070 3072 3074 3075 3077 3078 3079 3080 3081 3082 3083 3084 3085 3086 3087 3087 3088 3089 3090 3091 3091 3092 3093 3093 3094 3095 3095 3096 3096 3096 3097 3097 3097 3097 3097 3097
2979 2983 2986 2990 2994 2998 3002 3006 3009 3012 3015 3019 3022 3025 3028 3031 3034 3036 3039 3041 3043 3046 3049 3051 3052 3054 3056 3057 3059 3061 3064 3066 3068 3070 3072 3074 3075 3076 3077 3079 3080 3081 3082 3083 3084 3085 3086 3086 3087 3088 3089 3089 3090 3091 3092 3092 3093 3094 3094 3095 3095 3096 3096 3096 3096 3096 3096 3097 3097
2981 2985 2989 2993 2997 3001 3004 3007 3011 3014 3017 3020 3023 3026 3029 3032 3034 3037 3039 3041 3043 3046 3049 3051 3052 3054 3056 3058 3060 3062 3064 3066 3068 3070 3072 3073 3075 3076 3077 3079 3080 3081 3082 3083 3084 3085 3086 3086 3087 3088 3089 3090 3090 3091 3092 3092 3093 3094 3094 3095 3095 3095 3096 3096 3096 3096 3096 3096 3096
2984 2988 2991 2995 2999 3002 3006 3009 3012 3016 3019 3022 3025 3028 3030 3033 3035 3037 3039 3041 3045 3047 3049 3051 3053 3054 3056 3058 3061 3062 3065 3066 3068 3070 3072 3073 3075 3076 3077 3078 3080 3081 3082 3083 3084 3085 3086 3086 3087 3088 3089 3090 3090 3091 3092 3092 3093 3093 3094 3094 3095 3095 3095 3095 3095 3096 3096 3096 3096
2987 2991 2994 2998 3001 3004 3007 3011 3014 3017 3021 3024 3026 3028 3031 3034 3036 3038 3040 3043 3046 3048 3050 3051 3053 3055 3057 3059 3061 3063 3065 3066 3068 3070 3071 3073 3074 3076 3077 3078 3080 3081 3081 3082 3083 3084 3085 3086 3087 3088 3089 3090 3090 3091 3091 3092 3093 3093 3093 3094 3094 3094 3094 3095 3095 3095 3095 3095 3095
2990 2994 2997 3000 3003 3006 3009 3013 3016 3019 3022 3025 3027 3029 3032 3034 3036 3039 3042 3045 3046 3048 3050 3052 3054 3056 3058 3060 3061 3063 3065 3066 3068 3070 3071 3072 3074 3076 3077 3078 3079 3080 3081 3082 3083 3084 3085 3086 3087 3088 3089 3089 3090 3091 3091 3092 3092 3093 3093 3093 3093 3094 3094 3094 3094 3094 3094 3094 3094
2993 2996 2999 3002 3005 3008 3011 3015 3018 3021 3023 3026 3028 3030 3032 3035 3037 3040 3043 3045 3047 3049 3051 3052 3054 3056 3058 3060 3062 3063 3065 3066 3068 3069 3071 3072 3074 3076 3077 3078 3079 3080 3081 3082 3083 3084 3085 3086 3087 3088 3088 3089 3090 3091 3091 3091 3092 3092 3092 3093 3093 3093 3093 3094 3094 3094 3094 3093 3093
2996 2999 3002 3005 3008 3011 3014 3016 3019 3021 3024 3026 3028 3031 3033 3036 3039 3041 3043 3046 3047 3049 3051 3053 3055 3056 3059 3061 3062 3063 3065 3066 3068 3069 3071 3073 3074 3076 3076 3078 3079 3080 3081 3082 3083 3084 3085 3086 3087 3088 3088 3089 3090 3090 3091 3091 3091 3091 3092 3092 3092 3093 3093 3093 3093 3093 3093 3093 3093
2999 3002 3005 3007 3010 3012 3015 3017 3020 3022 3025 3026 3029 3031 3034 3037 3039 3041 3043 3045 3047 3049 3051 3053 3055 3057 3059 3061 3062 3064 3065 3067 3068 3070 3071 3073 3074 3076 3076 3078 3079 3080 3081 3082 3083 3084 3085 3086 3087 3087 3088 3089 3089 3089 3090 3090 3091 3091 3091 3091 3092 3092 3092 3092 3092 3092 3092 3092 3092
3001 3004 3006 3009 3011 3013 3016 3018 3021 3023 3025 3027 3030 3032 3035 3037 3039 3041 3043 3046 3047 3049 3051 3053 3055 3057 3059 3061 3062 3064 3066 3067 3069 3071 3072 3073 3074 3076 3076 3078 3079 3080 3081 3082 3083 3084 3085 3086 3086 3087 3087 3088 3088 3089 3089 3090 3090 3091 3091 3091 3091 3091 3091 3091 3092 3092 3092 3092 3092
3003 3006 3008 3010 3012 3014 3017 3020 3022 3024 3026 3028 3031 3033 3036 3038 3040 3041 3044 3046 3048 3050 3051 3053 3055 3057 3059 3061 3062 3064 3066 3068 3070 3071 3072 3073 3074 3076 3077 3078 3079 3080 3081 3082 3083 3084 3084 3085 3086 3086 3087 3087 3088 3088 3089 3089 3090 3090 3090 3090 3091 3091 3091 3091 3091 3091 3091 3091 3091
3005 3007 3009 3011 3014 3016 3019 3021 3023 3025 3027 3029 3031 3034 3036 3038 3040 3042 3044 3046 3048 3050 3052 3054 3055 3057 3059 3061 3062 3064 3066 3068 3069 3071 3072 3073 3075 3076 3077 3078 3079 3080 3081 3082 3083 3083 3084 3085 3085 3086 3086 3087 3087 3088 3088 3089 3089 3089 3089 3090 3090 3090 3090 3090 3090 3091 3091 3091 3091
3006 3008 3011 3013 3016 3018 3020 3022 3024 3026 3028 3030 3032 3035 3036 3039 3041 3043 3045 3047 3049 3050 3052 3054 3056 3057 3059 3061 3063 3064 3066 3068 3069 3071 3072 3073 3075 3076 3077 3078 3079 3080 3081 3082 3082 3083 3084 3084 3085 3085 3086 3086 3087 3087 3088 3088 3088 3089 3089 3089 3089 3089 3090 3090 3090 3090 3090 3090 3090
3009 3011 3012 3015 3016 3019 3021 3022 3024 3026 3029 3031 3033 3036 3037 3040 3042 3044 3046 3047 3049 3051 3052 3054 3056 3057 3059 3061 3063 3065 3066 3068 3069 3071 3072 3073 3074 3076 3077 3078 3079 3080 3081 3081 3082 3083 3083 3084 3085 3085 3086 3086 3086 3087 3087 3088 3088 3088 3088 3088 3088 3089 3089 3089 3089 3089 3089 3089 3089
3010 3012 3013 3015 3017 3019 3021 3023 3025 3027 3030 3032 3035 3037 3039 3041 3043 3045 3046 3048 3050 3051 3053 3055 3056 3058 3060 3061 3063 3065 3066 3068 3069 3071 3072 3073 3074 3076 3077 3078 3079 3080 3081 3081 3082 3083 3083 3084 3084 3085 3085 3086 3086 3086 3087 3087 3087 3087 3087 3088 3088 3088 3088 3088 3088 3088 3088 3088 3089
3011 3013 3015 3016 3018 3020 3022 3024 3026 3029 3031 3033 3036 3038 3040 3041 3043 3045 3047 3049 3050 3052 3054 3055 3057 3059 3061 3062 3064 3065 3066 3068 3069 3071 3072 3073 3075 3076 3077 3078 3079 3080 3080 3081 3082 3082 3083 3084 3084 3085 3085 3085 3086 3086 3086 3086 3087 3087 3087 3087 3087 3087 3087 3088 3088 3088 3088 3088 3088
3013 3014 3016 3018 3019 3021 3023 3026 3028 3030 3032 3035 3036 3038 3040 3042 3044 3046 3048 3049 3051 3053 3054 3056 3058 3059 3061 3062 3064 3065 3067 3068 3070 3071 3072 3074 3075 3076 3077 3078 3079 3080 3080 3081 3081 3082 3083 3083 3084 3084 3085 3085 3085 3085 3086 3086 3086 3086 3086 3086 3087 3087 3087 3087 3087 3087 3087 3087 3087
3015 3016 3018 3020 3021 3023 3026 3028 3030 3032 3034 3036 3037 3039 3041 3043 3045 3046 3048 3050 3052 3053 3055 3056 3058 3060 3061 3063 3064 3066 3067 3069 3070 3071 3073 3074 3075 3076 3077 3078 3079 3080 3080 3081 3081 3082 3082 3083 3083 3084 3084 3084 3084 3085 3085 3085 3086 3086 3086 3086 3086 3086 3086 3086 3086 3086 3086 3086 3086
3017 3018 3020 3021 3023 3026 3028 3030 3032 3033 3035 3037 3039 3041 3042 3044 3046 3047 3049 3051 3052 3054 3056 3057 3059 3060 3062 3063 3065 3066 3068 3069 3071 3072 3073 3074 3075 3076 3077 3078 3079 3080 3080 3081 3081 3082 3082 3083 3083 3083 3083 3084 3084 3084 3085 3085 3085 3085 3085 3086 3086 3086 3086 3086 3086 3086 3086 3086 3086
3019 3021 3022 3025 3026 3028 3030 3032 3033 3035 3036 3038 3040 3042 3044 3045 3047 3048 3050 3051 3053 3054 3056 3057 3059 3061 3062 3064 3066 3067 3069 3070 3071 3072 3074 3075 3076 3076 3077 3078 3079 3080 3080 3081 3081 3081 3082 3082 3082 3083 3083 3083 3083 3084 3084 3084 3084 3085 3085 3085 3085 3085 3085 3085 3085 3085 3085 3085 3085
3022 3024 3026 3028 3029 3031 3032 3034 3035 3036 3038 3040 3041 3043 3045 3046 3048 3049 3051 3052 3053 3055 3056 3058 3059 3061 3063 3064 3066 3067 3069 3071 3072 3073 3074 3075 3076 3076 3077 3078 3079 3079 3080 3080 3081 3081 3081 3082 3082 3082 3082 3083 3083 3083 3083 3083 3084 3084 3084 3084 3084 3084 3084 3085 3085 3085 3085 3085 3085
3025 3027 3029 3030 3031 3033 3034 3036 3037 3039 3040 3042 3043 3045 3046 3047 3049 3050 3051 3053 3054 3056 3057 3059 3060 3062 3063 3065 3066 3068 3069 3071 3072 3073 3074 3075 3076 3077 3077 3078 3079 3079 3080 3080 3081 3081 3081 3081 3082 3082 3082 3082 3082 3083 3083 3083 3083 3083 3084 3084 3084 3084 3084 3084 3084 3084 3084 3084 3084
3027 3029 3031 3032 3033 3035 3036 3038 3039 3041 3042 3044 3045 3046 3047 3048 3049 3051 3052 3054 3055 3056 3058 3060 3061 3063 3064 3066 3067 3069 3070 3071 3072 3073 3074 3075 3076 3077 3077 3078 3079 3079 3080 3080 3080 3081 3081 3081 3081 3081 3082 3082 3082 3082 3082 3083 3083 3083 3083 3083 3083 3084 3084 3084 3084 3084 3084 3084 3084
3029 3031 3032 3034 3035 3037 3038 3040 3041 3043 3044 3045 3046 3047 3048 3049 3050 3051 3053 3055 3056 3057 3059 3061 3062 3064 3065 3066 3068 3069 3070 3071 3072 3073 3074 3075 3076 3077 3077 3078 3078 3079 3079 3080 3080 3080 3081 3081 3081 3081 3081 3082 3082 3082 3082 3082 3083 3083 3083 3083 3083 3083 3083 3083 3083 3083 3083 3083 3083
3032 3033 3034 3036 3037 3038 3040 3041 3042 3044 3045 3046 3047 3048 3049 3050 3051 3053 3054 3056 3057 3059 3060 3062 3063 3065 3066 3067 3068 3070 3071 3072 3073 3074 3074 3075 3076 3077 3077 3078 3078 3079 3079 3079 3080 3080 3080 3081 3081 3081 3081 3081 3082 3082 3082 3082 3082 3082 3082 3082 3083 3083 3083 3083 3083 3083 3083 3083 3082
3033 3035 3036 3037 3039 3040 3041 3042 3043 3045 3046 3047 3048 3049 3050 3051 3052 3054 3055 3056 3058 3059 3061 3062 3064 3065 3066 3068 3069 3070 3071 3072 3073 3074 3075 3075 3076 3077 3077 3078 3078 3079 3079 3079 3080 3080 3080 3080 3081 3081 3081 3081 3081 3082 3082 3082 3082 3082 3082 3082 3082 3082 3082 3082 3082 3082 3082 3082 3082